Theta_e
319 319 319 318 319 319 320 320 321 321 321 321 321 321 321 320 320 321 314 320 324 333 333 328 335 337 340 336 339 339 328 324 323 326 327 336 332 339 341 339 340 342 342 344 347
318 318 318 318 318 319 319 319 320 320 320 320 321 321 320 319 319 316 329 325 323 334 329 329 331 334 332 332 334 330 324 325 329 331 328 335 334 334 336 336 336 338 343 345 345
318 317 318 318 318 318 319 319 319 319 320 320 320 320 320 320 317 317 335 327 329 330 333 335 335 332 327 329 330 329 323 331 332 335 337 334 333 340 332 330 337 336 340 341 343
317 317 317 317 318 318 318 319 319 318 319 319 320 320 319 321 307 325 336 338 336 329 334 332 330 326 322 321 327 323 326 330 332 335 331 333 336 333 337 334 341 342 343 342 341
317 317 317 317 317 318 318 318 317 318 318 319 321 320 319 316 312 324 337 340 335 325 331 329 326 325 318 320 322 320 325 328 336 336 335 336 334 332 336 341 343 343 343 342 342
317 317 317 317 317 317 317 317 317 318 319 320 322 320 320 309 319 322 328 336 326 324 329 330 326 327 320 317 317 320 322 326 331 333 334 329 332 334 338 343 341 341 341 342 342
317 317 317 317 317 317 316 316 319 320 322 323 323 322 316 312 318 322 328 327 325 326 327 330 328 324 319 314 318 318 314 318 323 328 329 333 327 330 340 341 340 340 341 342 342
316 317 317 317 317 316 315 315 320 322 322 323 323 324 313 318 322 321 327 326 328 327 329 330 327 321 319 317 312 311 313 310 318 321 326 329 321 332 341 339 338 339 339 340 341
316 316 316 316 316 315 314 315 323 322 322 323 324 322 310 317 315 316 326 323 326 329 328 327 323 317 317 310 307 308 304 308 313 320 324 326 323 332 340 338 338 339 339 340 340
315 315 315 315 314 313 313 314 324 323 324 325 322 314 310 307 312 314 318 323 325 321 322 318 315 311 312 309 301 303 304 308 310 319 323 324 324 331 338 337 338 339 339 339 340
315 315 314 314 313 312 313 318 318 315 315 306 307 307 307 312 315 313 317 322 325 318 311 315 308 305 309 311 309 309 307 306 312 322 322 322 324 329 336 336 337 338 339 338 340
315 314 314 313 312 311 314 311 309 311 306 309 307 308 309 312 308 313 321 314 314 311 313 309 304 310 311 311 309 308 306 307 310 315 322 321 320 331 334 335 337 338 339 338 340
314 314 313 312 311 311 314 311 316 314 306 307 308 306 307 310 306 308 317 314 310 309 310 307 308 311 309 308 306 307 306 306 307 313 318 320 318 325 331 336 338 339 341 340 340
314 313 312 310 309 317 314 316 316 315 302 302 304 306 308 308 304 311 315 316 311 306 309 308 312 308 307 306 308 304 309 308 307 307 307 318 309 319 330 329 333 336 339 339 338
313 312 310 308 316 314 314 318 316 312 292 301 303 310 308 305 306 307 313 312 307 309 308 305 308 307 306 307 309 306 310 307 307 306 308 311 309 315 324 323 330 334 337 340 340
312 311 310 316 318 316 318 317 312 298 291 298 302 301 302 303 304 306 308 311 312 307 309 309 312 310 310 311 311 311 308 307 307 305 298 306 309 311 315 322 327 334 336 339 341
310 308 309 316 313 318 318 312 298 293 301 297 298 300 300 300 301 302 303 304 302 299 300 305 308 311 312 308 311 310 306 298 296 297 296 305 305 314 320 325 326 332 335 338 341
308 306 313 316 319 317 314 305 294 298 298 301 299 300 297 299 301 300 300 299 304 302 299 299 298 307 312 309 307 307 306 299 294 295 298 305 301 308 321 327 328 333 335 339 340
307 316 317 318 318 316 309 299 299 300 300 298 300 297 298 298 298 298 299 300 302 303 297 298 299 309 311 312 311 307 303 309 303 305 301 303 305 311 316 320 326 326 333 335 340
313 315 315 318 318 313 305 297 300 302 301 301 296 298 296 298 296 298 299 302 299 301 303 301 296 306 308 311 311 308 312 302 303 297 296 303 304 303 310 315 321 324 329 333 339
313 310 315 318 317 310 302 301 300 303 302 299 298 297 298 296 297 297 298 300 301 301 302 301 298 299 304 304 304 305 304 307 307 304 299 298 304 314 312 317 319 322 327 330 333
313 308 316 317 307 308 302 301 296 301 303 301 301 299 297 297 296 297 296 299 302 302 298 302 298 295 298 304 307 306 306 306 302 302 304 304 305 317 317 317 320 323 326 329 331
310 309 315 315 302 301 302 300 301 300 300 299 298 299 300 297 293 297 297 301 301 300 298 302 296 292 294 298 302 302 305 307 307 308 305 301 304 319 318 318 321 322 325 327 329
311 306 308 309 308 303 300 298 297 300 299 300 299 300 298 296 298 294 295 299 300 300 302 301 297 294 292 295 299 298 300 305 306 301 303 305 307 314 316 318 323 326 329 330 331
310 303 305 300 302 302 301 299 296 296 300 300 297 296 295 293 294 293 296 297 298 301 300 299 293 296 297 298 298 297 298 301 303 305 301 305 308 313 316 318 324 327 328 328 329
309 308 307 303 302 301 297 297 295 295 297 294 295 295 296 293 294 293 295 296 294 298 297 298 293 295 293 297 297 295 297 298 299 301 302 306 306 315 315 320 321 322 327 328 330
312 312 308 298 300 301 298 297 295 297 297 298 296 296 295 297 299 301 300 300 299 296 295 296 295 292 289 294 295 291 296 297 298 301 301 300 308 315 314 316 322 327 326 327 329
Wind_Speed
19 19 19 20 20 19 18 18 17 16 15 12 11 10 9 8 9 12 12 2 6 10 9 17 19 18 16 15 14 11 10 7 5 8 8 11 5 1 17 11 5 5 11 25 27
20 20 21 21 21 20 19 18 17 16 15 13 11 9 9 7 14 16 5 6 2 7 17 21 21 18 15 18 13 15 12 1 7 14 14 15 14 10 8 11 8 9 20 26 28
21 21 21 22 22 21 20 19 17 16 14 12 11 8 7 10 13 6 9 3 8 13 21 18 17 18 18 14 17 17 15 11 26 10 8 6 16 19 9 14 16 17 25 27 27
22 22 22 23 22 21 20 19 18 17 14 12 10 7 6 13 2 11 6 8 13 17 23 19 19 19 18 18 16 18 13 14 13 2 5 8 4 11 11 6 14 23 25 28 28
23 22 23 23 23 22 20 19 18 16 15 11 9 6 8 10 1 6 5 14 15 18 24 21 20 19 18 16 15 19 18 10 12 5 6 6 16 0 15 11 19 24 26 27 25
22 22 23 22 23 23 21 19 18 15 12 9 8 7 9 12 5 6 3 10 17 23 23 21 15 18 13 16 15 10 18 14 10 10 8 10 12 7 16 12 19 22 25 26 26
23 23 24 24 24 22 21 18 15 9 8 7 10 10 10 5 4 4 5 11 14 22 20 19 16 16 9 16 12 16 11 16 17 12 8 11 12 15 17 14 19 21 23 25 24
24 25 24 25 24 22 19 15 9 5 1 6 9 13 3 3 3 6 4 8 12 17 16 15 12 15 18 7 5 16 19 17 20 20 17 15 18 17 18 17 19 21 21 23 24
24 24 25 26 25 21 18 13 6 4 4 7 9 9 7 5 9 3 4 8 13 12 11 10 12 14 17 14 13 15 16 22 18 22 18 18 9 13 18 16 18 19 21 21 22
23 24 25 25 26 23 18 9 5 7 10 10 8 10 4 4 3 2 4 5 13 12 14 11 11 17 18 15 16 18 19 19 20 19 21 19 10 22 31 18 19 19 20 22 23
24 25 25 26 26 26 16 6 8 10 17 7 7 5 4 6 8 7 8 13 16 13 16 18 16 20 22 20 21 15 17 21 18 16 17 22 16 18 15 18 19 19 20 21 24
24 24 25 25 25 27 13 7 6 7 6 5 1 4 1 4 6 4 10 12 12 16 18 15 21 20 19 17 19 20 14 16 19 17 16 19 17 21 17 17 19 19 19 20 22
23 24 25 24 25 12 3 7 7 6 9 11 3 2 0 8 2 5 9 12 11 18 21 21 11 20 20 18 17 18 18 15 16 15 18 17 20 19 8 16 18 18 20 20 22
23 24 25 26 8 3 4 9 7 5 8 14 11 6 6 3 6 1 4 10 10 17 20 21 20 8 22 20 17 18 17 18 16 17 16 20 16 22 29 29 19 16 21 21 23
24 24 24 10 12 3 8 9 4 7 8 3 7 6 2 11 3 10 1 8 15 13 14 19 20 21 16 19 18 17 16 17 18 16 16 19 19 16 24 20 22 21 20 23 23
24 25 22 6 9 5 9 7 7 10 2 8 2 1 9 5 4 0 6 6 6 12 16 18 17 20 25 16 15 17 17 16 16 15 18 23 20 20 16 22 22 23 23 22 24
23 23 15 8 7 10 9 7 9 9 4 8 3 3 5 2 7 6 7 12 10 12 15 18 20 20 17 20 21 17 19 13 15 16 18 23 25 16 18 20 19 27 24 24 23
25 22 9 5 9 8 8 9 8 6 8 5 2 5 9 5 9 7 10 12 11 12 15 15 18 23 19 20 22 20 21 14 21 16 17 23 24 21 20 10 8 19 24 23 24
29 8 5 7 5 6 9 11 8 11 7 6 10 9 10 7 9 1 7 13 9 9 14 11 19 6 22 22 24 24 24 22 23 21 19 18 26 21 28 21 15 15 19 23 24
8 5 6 10 4 7 9 3 5 9 8 6 12 2 7 2 3 6 2 7 1 4 9 8 13 14 9 11 15 22 15 23 18 24 23 18 19 18 23 21 22 14 15 19 25
8 7 8 10 6 9 6 8 5 7 8 6 6 7 7 7 7 11 8 7 3 7 8 14 8 17 10 7 18 18 20 17 17 22 18 15 12 12 23 19 16 22 17 16 17
6 4 9 7 7 4 6 6 3 4 2 2 4 6 5 6 8 12 10 3 8 9 14 10 10 15 20 16 20 24 19 27 16 21 19 17 13 9 14 18 20 19 21 19 19
4 5 7 10 2 6 6 8 6 4 6 4 2 4 5 8 5 7 7 9 7 10 8 12 11 14 17 15 18 17 19 19 24 23 20 18 15 10 5 2 9 20 17 11 7
6 1 5 7 6 6 5 6 5 5 3 4 5 5 6 7 5 6 5 5 7 12 10 9 14 19 15 6 13 12 24 22 19 17 21 19 18 16 13 7 11 11 11 11 9
6 6 5 7 8 8 6 1 3 5 3 2 4 5 7 6 4 6 7 10 6 13 10 13 18 19 19 19 16 14 16 13 16 18 19 18 18 15 10 12 14 7 4 5 5
4 2 4 6 3 4 4 7 6 5 2 6 2 2 6 6 9 14 14 12 10 3 10 15 12 18 19 20 16 19 17 18 19 21 22 23 19 19 15 10 3 2 5 6 6
4 1 3 1 3 3 9 7 7 4 4 3 2 10 7 8 8 14 15 14 14 12 11 6 8 12 17 18 21 23 22 20 20 22 21 22 18 16 10 5 12 12 6 7 9
Wind_Direction
348 343 340 340 339 336 334 329 324 319 314 311 306 295 284 276 268 235 242 354 202 182 219 185 201 198 209 213 228 219 253 286 230 206 218 146 101 198 249 141 141 155 157 149 156
346 343 340 340 338 335 332 326 322 315 311 309 304 290 277 267 260 252 161 109 290 248 205 186 187 190 203 217 210 243 250 75 253 119 281 135 139 232 173 145 151 130 113 146 164
343 342 341 339 336 333 330 325 319 312 308 304 301 285 267 257 265 133 51 154 225 238 228 192 187 195 209 216 213 221 258 172 267 50 82 249 151 192 164 179 156 138 138 153 164
341 340 339 337 335 331 327 322 316 309 303 296 289 270 251 241 308 90 136 206 211 224 235 201 197 200 212 210 221 250 228 262 323 81 80 309 242 174 97 283 136 137 147 163 165
337 337 336 336 335 331 327 320 313 305 293 283 268 237 236 221 250 43 211 187 193 206 222 202 203 206 220 227 224 226 261 229 227 232 126 197 231 327 135 121 120 138 153 165 169
335 335 335 335 335 331 327 321 317 306 286 262 228 202 245 254 35 15 24 161 186 200 215 207 210 214 241 249 234 231 236 261 239 231 187 210 231 187 121 130 131 150 160 166 173
337 336 335 333 334 333 327 322 321 314 289 224 195 228 257 1 331 325 200 175 186 202 207 206 219 220 232 253 226 255 256 231 244 228 218 223 218 193 130 154 148 158 166 172 178
337 336 336 333 332 334 327 317 318 337 53 165 195 248 359 39 304 217 181 177 180 215 230 204 217 258 236 251 251 228 239 246 206 220 228 209 218 176 153 161 159 162 171 176 177
335 335 336 333 331 331 321 307 278 243 189 193 223 234 104 145 218 117 220 183 179 202 238 208 250 234 230 242 233 202 234 218 240 197 215 208 220 31 164 170 162 165 171 177 182
335 334 334 333 330 325 316 287 217 229 216 218 267 246 133 355 55 181 159 207 175 181 209 188 218 226 222 211 228 213 218 236 216 177 211 202 176 135 229 175 164 169 172 180 185
334 332 334 332 327 318 313 209 207 193 226 345 14 338 66 105 181 206 185 178 180 199 196 203 219 214 211 225 240 269 239 228 198 205 209 231 197 137 194 174 166 172 177 183 186
331 329 330 329 323 313 287 20 29 342 271 161 209 187 308 331 172 150 201 198 200 208 209 188 224 229 230 227 234 254 254 266 239 215 209 220 224 176 177 177 174 175 178 183 184
328 328 327 325 318 288 25 30 313 290 253 161 198 12 62 272 12 78 230 228 208 215 206 228 209 222 240 232 233 233 242 245 250 222 225 243 235 178 104 282 185 180 175 183 187
328 328 326 325 296 348 80 355 309 233 257 138 198 141 214 245 196 315 295 284 231 235 229 228 236 211 221 235 226 236 223 255 263 245 209 229 244 223 160 210 191 188 173 184 185
327 327 321 320 317 339 341 340 309 223 251 105 112 47 248 254 52 145 239 234 263 225 238 231 227 242 227 237 224 243 250 217 244 257 258 225 227 255 191 183 184 192 192 186 186
325 325 326 210 223 357 319 320 236 233 159 122 115 198 223 199 188 100 223 221 300 282 273 264 236 231 237 229 238 241 242 249 227 236 238 239 243 219 212 195 191 188 195 194 190
322 321 312 305 341 324 304 259 233 256 165 125 122 255 290 132 203 264 243 212 237 222 228 229 242 253 226 223 223 220 221 217 215 222 234 221 237 250 206 191 210 190 196 191 195
321 316 206 267 309 297 257 235 257 40 49 53 258 268 264 26 208 268 246 247 203 268 292 274 211 218 210 234 224 214 215 222 210 215 224 229 217 229 252 192 152 211 191 192 196
313 223 268 347 329 263 240 232 8 18 8 342 279 243 211 173 285 231 240 291 24 354 296 287 269 11 213 213 245 208 220 241 254 249 239 209 215 234 223 235 155 272 190 182 189
302 249 58 334 289 249 245 1 68 19 331 295 284 73 301 145 278 184 261 79 253 290 295 287 283 283 199 245 261 261 242 221 242 247 253 232 220 203 220 218 216 204 229 191 187
257 232 35 328 253 239 290 58 92 58 329 321 346 309 300 319 314 299 290 106 199 306 294 296 282 265 241 214 239 229 249 256 250 229 246 247 224 238 197 202 224 206 214 208 215
271 266 10 301 241 345 49 14 316 25 37 30 289 318 296 327 282 279 275 353 67 327 307 316 284 248 249 228 238 244 251 234 239 227 235 256 237 10 189 184 200 228 214 215 215
345 39 17 287 292 94 125 96 41 25 24 8 14 345 10 307 298 262 297 352 1 297 317 332 234 249 243 260 265 253 247 263 233 254 228 224 234 109 105 295 190 197 230 223 257
284 205 91 51 22 82 114 39 106 58 70 9 342 298 306 270 219 278 273 337 331 288 18 310 275 281 277 307 345 281 231 245 261 243 239 236 225 151 157 170 82 58 33 25 3
343 62 337 21 52 67 54 21 66 51 24 4 51 359 10 301 305 267 269 293 258 270 241 250 266 268 280 287 278 282 296 291 257 265 273 263 235 240 308 186 93 80 34 359 341
6 64 73 84 346 103 162 69 36 10 336 42 64 326 301 285 299 314 305 284 281 260 275 276 257 285 271 267 264 262 247 249 261 263 272 276 278 291 6 18 357 164 82 345 337
65 23 27 269 52 19 38 36 22 323 27 15 325 293 295 353 310 295 294 289 270 262 263 266 282 285 265 260 249 242 242 239 244 246 249 252 253 272 253 292 359 37 16 342 327